This is the latest recevied weather packets stored in our database for station/object WB3IGR. If no packets are shown the sender has not sent any weather packets the latest 1 day(s).
| Time | Temp. | Humidity | Pressure | Rain* | Wind** | Luminosity | Snow |
|---|---|---|---|---|---|---|---|
| 1778023451 | 25° C | 44% | 1009.4 hPa | 0 mm | 0.89 m/s, 225° | 27 W/m² | - |
| 1778023147 | 25.56° C | 38% | 1009.5 hPa | 0 mm | 0.89 m/s, 227° | 34 W/m² | - |
| 1778022845 | 25.56° C | 38% | 1009.2 hPa | 0 mm | 4.02 m/s, 259° | 39 W/m² | - |
| 1778022543 | 25.56° C | 38% | 1009.3 hPa | 0 mm | 2.68 m/s, 247° | 49 W/m² | - |
| 1778022240 | 25.56° C | 38% | 1009.3 hPa | 0 mm | 3.58 m/s, 255° | 54 W/m² | - |
| 1778021937 | 25.56° C | 37% | 1009.3 hPa | 0 mm | 2.68 m/s, 252° | 55 W/m² | - |
| 1778021634 | 26.11° C | 37% | 1009.1 hPa | 0 mm | 3.13 m/s, 255° | 57 W/m² | - |
| 1778021329 | 26.11° C | 37% | 1009.3 hPa | 0 mm | 1.79 m/s, 287° | 62 W/m² | - |
| 1778021027 | 26.11° C | 37% | 1009.2 hPa | 0 mm | 3.58 m/s, 283° | 72 W/m² | - |
| 1778020724 | 26.67° C | 38% | 1009.4 hPa | 0 mm | 2.68 m/s, 285° | 113 W/m² | - |
| 1778020421 | 26.67° C | 37% | 1009.5 hPa | 0 mm | 1.79 m/s, 257° | 164 W/m² | - |
| 1778020116 | 26.67° C | 38% | 1009.6 hPa | 0 mm | 2.68 m/s, 275° | 184 W/m² | - |
| 1778019813 | 26.11° C | 38% | 1009.3 hPa | 0 mm | 1.79 m/s, 174° | 173 W/m² | - |
| 1778019510 | 26.11° C | 39% | 1009.6 hPa | 0 mm | 2.24 m/s, 244° | 148 W/m² | - |
| 1778019207 | 26.11° C | 38% | 1009.6 hPa | 0 mm | 3.13 m/s, 355° | 136 W/m² | - |
| 1778018904 | 26.11° C | 39% | 1009.5 hPa | 0 mm | 2.24 m/s, 248° | 105 W/m² | - |
| 1778018601 | 26.67° C | 38% | 1009.6 hPa | 0 mm | 2.24 m/s, 241° | 111 W/m² | - |
| 1778018299 | 26.67° C | 38% | 1009.4 hPa | 0 mm | 4.02 m/s, 272° | 150 W/m² | - |
| 1778017997 | 27.78° C | 39% | 1009.4 hPa | 0 mm | 0.89 m/s, 214° | 220 W/m² | - |
| 1778017694 | 27.22° C | 37% | 1009.5 hPa | 0 mm | 2.68 m/s, 308° | 240 W/m² | - |
| 1778017392 | 27.22° C | 37% | 1009.2 hPa | 0 mm | 3.13 m/s, 240° | 177 W/m² | - |
| 1778017088 | 27.78° C | 37% | 1009.3 hPa | 0 mm | 4.02 m/s, 311° | 281 W/m² | - |
| 1778016786 | 27.22° C | 37% | 1009.3 hPa | 0 mm | 1.79 m/s, 341° | 317 W/m² | - |
| 1778016482 | 27.22° C | 36% | 1009.3 hPa | 0 mm | 3.58 m/s, 276° | 370 W/m² | - |
| 1778016179 | 27.22° C | 36% | 1009.2 hPa | 0 mm | 3.58 m/s, 256° | 419 W/m² | - |
* Rain latest hour (hover to see other rain measurements)
** Current wind speed in m/s (hover to see current wind gust speed)